Weather Roundup
Issued by NWS

Home | Current Version | Previous Version | Text Only | Print | Product List | Glossary On
Versions: 1 2 3 4 5 6 7 8 9 10 11 12 13 14 15 16 17 18 19 20 21 22 23 24 25 26 27 28 29 30 31 32 33 34 35 36 37 38 39 40 41 42 43 44 45 46 47 48 49 50
000
NZUS93 KARX 242159
HRRWXR

CURRENT HOURLY OBSERVATIONS ACROSS
MUCH OF THE UPPER MISSISSIPPI VALLEY
NATIONAL WEATHER SERVICE LA CROSSE WI
500 PM CDT FRI OCT 24 2014


...SOUTHEAST MINNESOTA...


CITY           SKY/WX    TMP DP  RH WIND       PRES   REMARKS
ROCHESTER      CLOUDY    60  55  83 SW8       29.89R
ROCHESTER/MAYO CLOUDY    60  55  85 SW6       29.88R
WINONA         CLOUDY    61  55  82 CALM      29.88R
AUSTIN         PTSUNNY   59  57  94 CALM      29.88R FOG
ALBERT LEA     PTSUNNY   68  55  64 W6        29.87R
DODGE CENTER   PTSUNNY   61  57  88 SW7       29.87S FOG
PRESTON        CLOUDY    57  55  91 SW7       29.89S
OWATONNA       PTSUNNY   66  55  68 SW3       29.87R
FARIBAULT      PTSUNNY   66  55  68 SW5       29.86R
$$

...ELSEWHERE IN MINNESOTA...


CITY           SKY/WX    TMP DP  RH WIND       PRES   REMARKS
MINNEAPOLIS    PTSUNNY   67  54  63 SW7       29.84R
INTNL FALLS    MOCLDY    68  41  37 SW10      29.65F
DULUTH         CLEAR     67  50  54 SW14      29.75F
RED WING       CLOUDY    61  55  82 CALM      29.86R
REDWOOD FALLS  MOSUNNY   74  43  32 W8        29.85R
MANKATO        MOSUNNY   68  50  52 W8        29.86R
WORTHINGTON    SUNNY     73  36  25 NW13      29.90R
FAIRMONT       MOSUNNY   73  18  12 W9        29.88R
$$

...SOUTHWEST WISCONSIN...


CITY           SKY/WX    TMP DP  RH WIND       PRES   REMARKS
LA CROSSE      CLOUDY    61  57  87 S5        29.87S
PRAIRIE DU CHI CLOUDY    59  56  90 CALM      29.90S FOG
BOSCOBEL       CLOUDY    63  55  75 S5        29.90F
LONE ROCK      NOT AVBL
PLATTEVILLE    PTSUNNY   61  55  82 SE12      29.91S
FORT MC COY    CLOUDY    63  51  64 S5        29.87F
CAMP DOUGLAS   CLOUDY    61  55  82 S3        29.88S
VIROQUA        CLOUDY    59  57  94 SW12      29.90R
WIS DELLS      MOCLDY    60  49  66 S10       29.89F
$$

...ELSEWHERE IN WISCONSIN...


CITY           SKY/WX    TMP DP  RH WIND       PRES   REMARKS
MILWAUKEE      MOCLDY    61  50  67 SW7       29.94F
MADISON        MOCLDY    61  50  67 S8        29.92F
GREEN BAY      MOCLDY    53  49  86 S7        29.91F FOG
EAU CLAIRE     NOT AVBL
BLACK RVR FLS  CLOUDY    62  51  68 CALM      29.85F
MEDFORD        CLOUDY    56  48  76 S8        29.86F
WAUSAU         CLOUDY    57  47  69 S6        29.86F
WIS RAPIDS     CLOUDY    59  50  72 S8        29.89F
MARSHFIELD     CLOUDY    58  50  75 S6        29.87S
RICE LAKE      CLOUDY    58  52  80 S9        29.87R
$$

...NORTHEAST IOWA...


CITY           SKY/WX    TMP DP  RH WIND       PRES   REMARKS
DECORAH        CLOUDY    59  55  88 S10       29.89R
MASON CITY     PTSUNNY   68  57  68 W10       29.89R
CHARLES CITY   CLOUDY    59  59 100 S6        29.89S FOG
OELWEIN        CLOUDY    57  57 100 S7        29.91R FOG
$$

...ELSEWHERE IN IOWA...


CITY           SKY/WX    TMP DP  RH WIND       PRES   REMARKS
DES MOINES     CLOUDY    67  61  81 SW8       29.89S
IOWA CITY      CLOUDY    64  58  80 S8        29.91F
FORT DODGE     MOSUNNY   72  55  56 W8        29.89R
$$

...NORTHERN ILLINOIS...


CITY           SKY/WX    TMP DP  RH WIND       PRES   REMARKS
CHICAGO-OHARE  MOCLDY    65  46  50 SW8       29.95F
CHICAGO-MIDWAY MOCLDY    67  48  50 SW9       29.96F
MOLINE         CLOUDY    68  52  56 S10       29.92F
ROCKFORD       CLOUDY    63  50  62 S7        29.96F
PEORIA         MOSUNNY   65  51  60 S9        29.97F
$$

NOTE: "FAIR" INDICATES FEW OR NO CLOUDS BELOW 12,000 FEET WITH NO
SIGNIFICANT WEATHER AND/OR OBSTRUCTIONS TO VISIBILITY. WIND
SPEEDS ARE IN MILES-PER-HOUR.



USA.gov is the U.S. government's official web portal to all federal, state and local government web resources and services.